This demonstration page uses our WeatherBlox Daily Observations layout. Learn more.

Left ArrowRight Arrow

38.20091, -84.87328

Hourly Observations for May 30, 2020

Temp ( °F °C ) Dew Point ( °F °C ) Humidity (%) Winds ( mph kmh ) Pressure ( in mb ) Visibility ( mi km ) Precip ( " mm )
12:53 am 00:53 Mostly Cloudy 63 17.2 60 15.6 90 90 Calm 30.04 1017 10 16 0.00 0.00
1:53 am 01:53 Mostly Cloudy 63 17.2 59 15 87 87 Calm 30.04 1017 10 16 0.00 0.00
2:53 am 02:53 Clear with Mist and Fog 60 15.6 58 14.4 93 93 Calm 30.03 1017 5 8 0.00 0.00
3:53 am 03:53 Clear 60 15.6 57 13.9 90 90 Calm 30.03 1017 10 16 0.00 0.00
4:53 am 04:53 Clear with Mist and Fog 58 14.4 56 13.3 93 93 Calm 30.04 1017 6 10 0.00 0.00
5:53 am 05:53 Clear 58 14.4 55 12.8 90 90 Calm 30.05 1018 10 16 0.00 0.00
6:30 am 06:30 Partly Cloudy with Mist and Fog 57 13.9 54 12.2 90 90 NNW 3 6 30.07 1018 2 3 0.00 0.00
6:37 am 06:37 Partly Cloudy with Mist and Fog 57 13.9 55 12.8 93 93 Calm 30.08 1019 2 2 0.00 0.00
6:40 am 06:40 Partly Cloudy with Mist and Fog 57 13.9 55 12.8 93 93 Calm 30.08 1019 3 5 0.00 0.00
6:53 am 06:53 Mostly Sunny 58 14.4 56 13.3 93 93 Calm 30.07 1018 10 16 0.00 0.00
7:53 am 07:53 Sunny 62 16.7 58 14.4 86 86 NNW 5 7 30.08 1019 10 16 0.00 0.00
8:53 am 08:53 Sunny 65 18.3 57 13.9 76 76 VRB 6 9 30.09 1019 10 16 0.00 0.00
9:53 am 09:53 Sunny 67 19.4 56 13.3 68 68 NNE 7 11 30.11 1020 10 16 0.00 0.00
10:53 am 10:53 Sunny 70 21.1 58 14.4 66 66 VRB 5 7 30.10 1019 10 16 0.00 0.00
11:53 am 11:53 Mostly Sunny 73 22.8 56 13.3 55 55 N 6 9 30.10 1019 10 16 0.00 0.00
12:53 pm 12:53 Partly Cloudy 74 23.3 54 12.2 50 50 NNW 9 15 30.09 1019 10 16 0.00 0.00
1:53 pm 13:53 Mostly Cloudy 74 23.3 53 11.7 48 48 NW 10 17 30.09 1019 10 16 0.00 0.00
2:53 pm 14:53 Partly Cloudy 74 23.3 54 12.2 50 50 NNW 10 17 30.09 1019 10 16 0.00 0.00
3:53 pm 15:53 Mostly Cloudy 76 24.4 54 12.2 47 47 N 8 13 30.09 1019 10 16 0.00 0.00
4:53 pm 16:53 Partly Cloudy 76 24.4 52 11.1 43 43 N 13 20 30.09 1019 10 16 0.00 0.00
5:53 pm 17:53 Mostly Sunny 74 23.3 51 10.6 45 45 NNW 8 13 30.09 1019 10 16 0.00 0.00
6:53 pm 18:53 Mostly Sunny 75 23.9 49 9.4 40 40 N 8 13 30.07 1018 10 16 0.00 0.00
7:53 pm 19:53 Sunny 73 22.8 49 9.4 43 43 N 6 9 30.09 1019 10 16 0.00 0.00
8:53 pm 20:53 Sunny 68 20 50 10 53 53 NNW 5 7 30.11 1020 10 16 0.00 0.00
9:53 pm 21:53 Clear 65 18.3 49 9.4 56 56 NW 5 7 30.12 1020 10 16 0.00 0.00
10:53 pm 22:53 Clear 60 15.6 51 10.6 72 72 NNW 3 6 30.14 1021 10 16 0.00 0.00
11:53 pm 23:53 Clear 57 13.9 51 10.6 81 81 Calm 30.14 1021 10 16 0.00 0.00

Powered by AerisWeather